Time,TemperatureF,DewpointF,PressureIn,WindDirection,WindDirectionDegrees,WindSpeedMPH,WindSpeedGustMPH,Humidity,HourlyPrecipIn,Conditions,Clouds,dailyrainin,SoftwareType,DateUTC
2013-03-31 00:09:00,48.9,40.6,29.91,SW,230,9.0,9.0,73,0.00,OVC,OVC,0.00,WeatherDisplay:10.37,2013-03-31 05:09:00,
2013-03-31 00:39:00,48.0,41.8,29.89,SW,230,12.0,12.0,79,0.00,OVC,OVC,0.00,WeatherDisplay:10.37,2013-03-31 05:39:00,
2013-03-31 01:09:00,48.0,41.8,29.89,SW,230,12.0,12.0,79,0.00,OVC,OVC,0.00,WeatherDisplay:10.37,2013-03-31 06:09:00,
2013-03-31 01:39:00,46.9,42.0,29.87,SW,220,10.0,10.0,83,0.00,OVC,OVC,0.00,WeatherDisplay:10.37,2013-03-31 06:39:00,
2013-03-31 02:09:00,46.9,42.0,29.87,SW,220,10.0,10.0,83,0.00,OVC,OVC,0.00,WeatherDisplay:10.37,2013-03-31 07:09:00,
2013-03-31 02:39:00,46.9,42.0,29.86,WSW,240,7.0,7.0,83,0.00,OVC,OVC,0.00,WeatherDisplay:10.37,2013-03-31 07:39:00,
2013-03-31 03:09:00,46.9,42.0,29.86,WSW,240,7.0,7.0,83,0.00,OVC,OVC,0.00,WeatherDisplay:10.37,2013-03-31 08:09:00,
2013-03-31 03:39:00,46.9,42.0,29.85,West,270,6.0,6.0,83,0.00,OVC,OVC,0.00,WeatherDisplay:10.37,2013-03-31 08:39:00,
2013-03-31 04:09:00,46.9,43.0,29.85,WNW,290,8.0,8.0,86,0.00,OVC,OVC,0.00,WeatherDisplay:10.37,2013-03-31 09:09:00,
2013-03-31 04:39:00,46.9,43.0,29.84,WNW,300,6.0,6.0,86,0.00,OVC,OVC,0.00,WeatherDisplay:10.37,2013-03-31 09:39:00,
2013-03-31 05:09:00,46.9,43.0,29.84,WNW,290,8.0,8.0,86,0.00,OVC,OVC,0.00,WeatherDisplay:10.37,2013-03-31 10:09:00,
2013-03-31 05:39:00,46.9,43.0,29.85,WNW,290,8.0,8.0,86,0.00,OVC,OVC,0.00,WeatherDisplay:10.37,2013-03-31 10:39:00,
2013-03-31 06:09:00,46.9,43.0,29.85,WNW,300,9.0,9.0,86,0.00,OVC,OVC,0.00,WeatherDisplay:10.37,2013-03-31 11:09:00,
2013-03-31 06:39:00,46.9,43.0,29.84,WNW,300,7.0,8.0,86,0.00,OVC,OVC,0.00,WeatherDisplay:10.37,2013-03-31 11:39:00,
2013-03-31 07:09:00,46.9,43.0,29.84,WNW,300,7.0,7.0,86,0.00,OVC,OVC,0.00,WeatherDisplay:10.37,2013-03-31 12:09:00,
2013-03-31 07:39:00,46.0,41.8,29.85,NW,310,6.0,6.0,85,0.00,OVC,OVC,0.00,WeatherDisplay:10.37,2013-03-31 12:39:00,
2013-03-31 08:09:00,46.0,41.8,29.85,NW,310,6.0,6.0,85,0.00,OVC,OVC,0.00,WeatherDisplay:10.37,2013-03-31 13:09:00,
2013-03-31 08:39:00,46.9,42.0,29.86,WNW,300,8.0,8.0,83,0.00,OVC,OVC,0.00,WeatherDisplay:10.37,2013-03-31 13:39:00,
2013-03-31 09:09:00,46.9,42.0,29.86,WNW,300,8.0,8.0,83,0.00,OVC,OVC,0.00,WeatherDisplay:10.37,2013-03-31 14:09:00,
2013-03-31 09:39:00,48.0,42.8,29.86,WNW,300,7.0,7.0,82,0.00,OVC,OVC,0.00,WeatherDisplay:10.37,2013-03-31 14:39:00,
2013-03-31 10:09:00,48.0,42.8,29.86,WNW,300,7.0,7.0,82,0.00,OVC,OVC,0.00,WeatherDisplay:10.37,2013-03-31 15:09:00,
2013-03-31 10:39:00,50.0,42.7,29.85,West,270,13.0,21.0,76,0.00,BKN,BKN,0.00,WeatherDisplay:10.37,2013-03-31 15:39:00,
2013-03-31 11:09:00,50.0,42.7,29.85,West,270,13.0,21.0,76,0.00,BKN,BKN,0.00,WeatherDisplay:10.37,2013-03-31 16:09:00,
2013-03-31 11:39:00,54.0,42.9,29.85,West,270,15.0,25.0,66,0.00,BKN,BKN,0.00,WeatherDisplay:10.37,2013-03-31 16:39:00,
2013-03-31 12:09:00,55.0,41.8,29.84,West,270,13.0,23.0,61,0.00,SCT,SCT,0.00,WeatherDisplay:10.37,2013-03-31 17:09:00,
2013-03-31 12:39:00,57.9,41.8,29.83,WNW,290,12.0,23.0,55,0.00,FEW,FEW,0.00,WeatherDisplay:10.37,2013-03-31 17:39:00,
2013-03-31 13:09:00,57.9,41.8,29.83,WNW,290,12.0,23.0,55,0.00,FEW,FEW,0.00,WeatherDisplay:10.37,2013-03-31 18:09:00,
2013-03-31 13:39:00,59.0,37.7,29.82,NW,310,15.0,25.0,45,0.00,SCT,SCT,0.00,WeatherDisplay:10.37,2013-03-31 18:39:00,
2013-03-31 14:09:00,59.0,37.7,29.82,NW,310,15.0,25.0,45,0.00,SCT,SCT,0.00,WeatherDisplay:10.37,2013-03-31 19:09:00,
2013-03-31 14:39:00,59.0,34.7,29.81,WNW,300,17.0,35.0,40,0.00,BKN,BKN,0.00,WeatherDisplay:10.37,2013-03-31 19:39:00,
2013-03-31 15:09:00,59.0,34.7,29.81,WNW,300,17.0,35.0,40,0.00,BKN,BKN,0.00,WeatherDisplay:10.37,2013-03-31 20:09:00,
2013-03-31 15:39:00,60.1,35.7,29.80,WNW,300,15.0,24.0,40,0.00,BKN,BKN,0.00,WeatherDisplay:10.37,2013-03-31 20:39:00,
2013-03-31 16:09:00,60.1,35.7,29.80,WNW,300,15.0,24.0,40,0.00,BKN,BKN,0.00,WeatherDisplay:10.37,2013-03-31 21:09:00,
2013-03-31 16:39:00,57.9,32.4,29.81,WNW,290,17.0,33.0,38,0.00,BKN,BKN,0.00,WeatherDisplay:10.37,2013-03-31 21:39:00,
2013-03-31 17:09:00,57.9,32.4,29.81,WNW,290,17.0,33.0,38,0.00,BKN,BKN,0.00,WeatherDisplay:10.37,2013-03-31 22:09:00,
2013-03-31 17:39:00,57.9,26.6,29.82,WNW,290,15.0,29.0,30,0.00,CLR,CLR,0.00,WeatherDisplay:10.37,2013-03-31 22:39:00,
2013-03-31 18:09:00,57.9,26.6,29.82,WNW,290,15.0,29.0,30,0.00,CLR,CLR,0.00,WeatherDisplay:10.37,2013-03-31 23:09:00,
2013-03-31 18:39:00,55.0,28.5,29.84,WNW,300,20.0,35.0,36,0.00,CLR,CLR,0.00,WeatherDisplay:10.37,2013-03-31 23:39:00,
2013-03-31 19:09:00,55.0,28.5,29.84,WNW,300,20.0,35.0,36,0.00,CLR,CLR,0.00,WeatherDisplay:10.37,2013-04-01 00:09:00,
2013-03-31 19:39:00,53.1,24.7,29.85,WNW,300,13.0,25.0,33,0.00,CLR,CLR,0.00,WeatherDisplay:10.37,2013-04-01 00:39:00,
2013-03-31 20:09:00,53.1,24.7,29.85,WNW,300,13.0,25.0,33,0.00,CLR,CLR,0.00,WeatherDisplay:10.37,2013-04-01 01:09:00,
2013-03-31 20:39:00,48.9,27.9,29.87,NW,320,9.0,9.0,44,0.00,CLR,CLR,0.00,WeatherDisplay:10.37,2013-04-01 01:39:00,
2013-03-31 21:09:00,48.9,27.9,29.87,NW,320,9.0,9.0,44,0.00,CLR,CLR,0.00,WeatherDisplay:10.37,2013-04-01 02:09:00,
2013-03-31 21:39:00,45.0,26.4,29.91,NW,320,10.0,28.0,48,0.00,CLR,CLR,0.00,WeatherDisplay:10.37,2013-04-01 02:39:00,
2013-03-31 22:09:00,45.0,26.4,29.91,NW,320,10.0,28.0,48,0.00,CLR,CLR,0.00,WeatherDisplay:10.37,2013-04-01 03:09:00,
2013-03-31 22:39:00,43.0,26.5,29.93,NNW,330,8.0,23.0,52,0.00,CLR,CLR,0.00,WeatherDisplay:10.37,2013-04-01 03:39:00,
2013-03-31 23:09:00,43.0,26.5,29.93,NNW,330,8.0,23.0,52,0.00,CLR,CLR,0.00,WeatherDisplay:10.37,2013-04-01 04:09:00,
2013-03-31 23:39:00,42.1,26.6,29.95,NW,320,10.0,23.0,54,0.00,CLR,CLR,0.00,WeatherDisplay:10.37,2013-04-01 04:39:00,